Tracking 28096 objects as of 29-Sep-2023
HD Live streaming from Space Station
objects crossing your sky now

STARLINK-5488

Track STARLINK-5488 now!
10-day predictions
STARLINK-5488 is classified as:


NORAD ID: 57250
Int'l Code: 2023-094AJ
Perigee: 565.2 km
Apogee: 567.1 km
Inclination: 43.0 °
Period: 95.8 minutes
Semi major axis: 6937 km
RCS: Unknown
Launch date: July 7, 2023
Source: United States (US)
Launch site: AIR FORCE WESTERN TEST RANGE (AFWTR)
Your satellite tracking list
Your tracking list is empty




NASA's NSSDC Master Catalog

Two Line Element Set (TLE):
1 57250U 23094AJ  23271.91668981 -.00029882  00000-0 -22051-2 0  9993
2 57250  43.0000 188.5229 0001424 262.3808  49.7724 15.02558768  5952
Source of the keplerian elements: AFSPC